This is the latest recevied weather packets stored in our database for station/object W8BS. If no packets are shown the sender has not sent any weather packets the latest 1 day(s).
| Time | Temp. | Humidity | Pressure | Rain* | Wind** | Luminosity | Snow |
|---|---|---|---|---|---|---|---|
| 1778092730 | 13.33° C | 99% | 1009.6 hPa | 0 mm | - | 140 W/m² | - |
| 1778090608 | 13.89° C | 99% | 1009.5 hPa | 1.27 mm | - | 107 W/m² | - |
| 1778090001 | 13.89° C | 99% | 1009.4 hPa | 1.78 mm | - | 190 W/m² | - |
| 1778089093 | 13.89° C | 99% | 1009.5 hPa | 0 mm | - | 112 W/m² | - |
| 1778088487 | 13.89° C | 99% | 1009.6 hPa | 0 mm | - | 78 W/m² | - |
| 1778086670 | 13.89° C | 99% | 1009.9 hPa | 1.78 mm | - | 65 W/m² | - |
| 1778086064 | 13.89° C | 99% | 1009.5 hPa | 0 mm | - | 69 W/m² | - |
| 1778085761 | 13.89° C | 99% | 1009.6 hPa | 0 mm | - | 142 W/m² | - |
| 1778085458 | 13.89° C | 99% | 1009.6 hPa | 0 mm | - | 91 W/m² | - |
| 1778084547 | 13.89° C | 99% | 1009.3 hPa | 1.27 mm | - | 57 W/m² | - |
| 1778084244 | 13.89° C | 99% | 1009.3 hPa | 1.27 mm | - | 76 W/m² | - |
| 1778083941 | 14.44° C | 99% | 1009.2 hPa | 0 mm | - | 52 W/m² | - |
| 1778083335 | 14.44° C | 99% | 1009.4 hPa | 0 mm | - | 64 W/m² | - |
| 1778081598 | 14.44° C | 99% | 1008.8 hPa | 1.27 mm | - | 63 W/m² | - |
| 1778081295 | 14.44° C | 99% | 1008.4 hPa | 0 mm | - | 103 W/m² | - |
| 1778080992 | 14.44° C | 99% | 1008.6 hPa | 1.78 mm | - | 114 W/m² | - |
| 1778080691 | 14.44° C | 99% | 1008.5 hPa | 1.78 mm | - | 81 W/m² | - |
| 1778079781 | 14.44° C | 99% | 1008.4 hPa | 0 mm | - | 91 W/m² | - |
| 1778079478 | 13.89° C | 99% | 1008.5 hPa | 1.78 mm | - | 86 W/m² | - |
| 1778079174 | 13.89° C | 99% | 1008.4 hPa | 1.78 mm | - | 58 W/m² | - |
| 1778078872 | 13.89° C | 99% | 1008.5 hPa | 1.78 mm | - | 56 W/m² | - |
| 1778077662 | 13.89° C | 99% | 1008.4 hPa | 1.78 mm | - | 78 W/m² | - |
| 1778075846 | 13.89° C | 99% | 1008.2 hPa | 1.27 mm | - | 59 W/m² | - |
| 1778074027 | 13.89° C | 99% | 1008.1 hPa | 0 mm | - | 52 W/m² | - |
| 1778073117 | 13.33° C | 99% | 1008.1 hPa | 0 mm | - | 49 W/m² | - |
* Rain latest hour (hover to see other rain measurements)
** Current wind speed in m/s (hover to see current wind gust speed)